www.pogodaiklimat.ru

Погода и климат >> Архив погоды >> Россия >> Камчатский край >> Мыс Лопатка


ПОГОДА на Мысе Лопатка

  • Прогноз погоды на Мысе Лопатка
  • Монитор погоды на Мысе Лопатка
  • Климат города

АРХИВ ПОГОДЫ на Мысе Лопатка

Время (UTC), дата Ветер
(напр.,м/с)
 
Видим.   Явления Облачность Т
(С)
Тd
(С)
f
(%)
Тe
(С)
Тes
(С)
Комфортность P
(гПа)
Po
(гПа)
Тmin
(С)
Tmax
(С)
R
(мм)
S
(см)
03 17.02 В 3 50 км 1/0
[Ci fib]
-4.8 -9.1 72 -10 -7 1009.0 1002.6
06 17.02 ЮВ 9-11
{11}
10 км слабый ливневой снег 8/8 600 м
[Cb cap]
-3.3 -4.9 89 -12 -12 1007.4 1001.0
09 17.02 ЮВ 12-14
{14}
20 км позёмок {ливн. осадки, метель} 9/3 600 м
[Sc Ac trans Cs]
-2.4 -6.1 76 -12 -12 1005.0 998.7 -2.3 0.0
12 17.02 ЮВ 15-17
{17}
1000 м метель {ливн. осадки} ?/? -2.8 -3.4 96 -14 -14 1002.6 996.3
15 17.02 В 17-20
{20}
1000 м метель ?/? -1.9 -2.3 97 -13 -13 999.2 993.0
18 17.02 В 20-24
{24}
500 м сильная метель ?/? -1.5 -2.0 96 -13 -13 993.9 987.7
21 17.02 В 22-29
{29}
200 м сильная метель ?/? -1.1 -1.5 97 -13 -13 988.6 982.4 -2.8 7 34
00 18.02 В 24-30
{30}
200 м сильная метель ?/? -0.8 -1.1 98 -13 -13 982.7 976.5
03 18.02 В 25-31
{33}
200 м сильная метель ?/? -0.6 -0.9 98 -13 -13 974.9 968.8
06 18.02 В 18-22
{32}
2000 м слабый снег {метель} 10/10 200 м
[Frnb Ns]
-0.2 -0.4 99 -11 -11 972.3 966.2
09 18.02 З 12-15
{23}
500 м сильная метель {снег} ?/? -3.6 -4.0 97 -14 -14 975.9 969.7 -0.2 19
12 18.02 Ю 12-15
{18}
20 км позёмок {ливн. осадки, снег} 1/1 600 м
[Sc]
-4.0 -5.5 89 -14 -14 978.6 972.4
15 18.02 В 12-15
{16}
2000 м слабый ливневой снег {метель} 9/9 300 м
[Cb cap]
-4.5 -5.2 95 -15 -15 979.7 973.5
18 18.02 11-17
{18}
20 км сильный позёмок {снег, метель} н/о -3.7 -4.6 93 -14 -14 979.4 973.2
21 18.02 ЮВ 11-17
{19}
4000 м слабый ливневой снег {метель} 10/8 600 м
[Cb cap Ci ing]
-3.4 -4.3 93 -13 -13 979.7 973.5 -4.5 0.3 41
00 19.02 ЮВ 13-15
{17}
20 км сильный позёмок {ливн. осадки, метель} 9/3 600 м
[Sc diur, vesp Ci ing]
-2.8 -4.1 91 -13 -13 979.5 973.3
03 19.02 В 16-20
{23}
4000 м слабый ливневой снег {метель} 10/8 600 м
[Cb cap Ci ing]
-2.4 -3.3 94 -13 -13 976.8 970.7
06 19.02 В 13-16
{23}
2000 м слабый ливневой снег {метель} 9/9 600 м
[Cb cap]
-2.3 -2.8 96 -12 -12 975.6 969.5
09 19.02 В 18-21
{22}
200 м сильная метель {ливн. осадки} ?/? -1.4 -1.8 97 -12 -12 974.7 968.6 -1.4 1
12 19.02 В 15-18
{30}
20 км сильный позёмок {ливн. осадки, метель} 3/3 600 м
[Sc diur, vesp]
-1.6 -2.8 92 -12 -12 975.0 968.9
15 19.02 В 17-21
{21}
20 км позёмок {метель} 9/9 600 м
[Sc]
-1.5 -2.7 92 -12 -12 974.6 968.5
18 19.02 В 17-20
{21}
20 км гроза без осадков {ливн. осадки, метель} 3/3 600 м
[Sc diur, vesp]
-1.5 -2.4 94 -12 -12 974.6 968.5
21 19.02 В 11-13
{20}
4000 м слабый ливневой снег {метель} 10/9 600 м
[Cb cap Ci ing]
-2.4 -3.1 95 -12 -12 977.1 971.0 -2.6 0.7 42
00 20.02 В 8
{16}
20 км в посл. час ливневой снег {метель} 6/3 600 м
[Cb cap Ci ing]
-2.0 -2.6 96 -10 -10 979.0 972.9
03 20.02 В 11-13
{14}
20 км позёмок {метель} 3/3 600 м
[Cb calv Ac trans Ci ing]
-1.6 -2.2 96 -11 -11 980.0 973.9
06 20.02 СВ 8-10
{15}
20 км в посл. час ливневой снег {метель} 8/3 600 м
[Sc diur, vesp Ac trans]
-2.2 -3.4 91 -10 -10 983.0 976.8
09 20.02 С 5
{10}
20 км 1/1 600 м
[Sc]
-2.8 -4.0 91 -10 -10 986.7 980.5 -0.9 0.3
12 20.02 С 2 20 км 3/0
[Ci fib]
-1.9 -4.4 83 -6 -6 988.8 982.6
15 20.02 ЮЗ 3 20 км 3/1 600 м
[Sc Ci fib]
-2.0 -4.3 84 -7 -7 990.1 983.9
18 20.02 З 6 20 км ясно -2.0 -3.4 90 -9 -9 990.1 983.9
21 20.02 В 3 50 км 3/1 1000 м
[Sc Ac trans Ci fib]
-4.0 -6.1 85 -9 -9 991.7 985.3 -4.3 42
00 21.02 СВ 4 10 км слабый снег 9/0
[As op]
-2.4 -4.2 87 -8 -8 992.1 985.9 -4.5
03 21.02 Ю 6 50 км {снег} 3/0
[Ci sp]
-1.8 -3.8 86 -9 -7 989.8 983.6
06 21.02 СЗ 9-10
{11}
20 км позёмок {снег, метель} 9/1 600 м
[Sc Ac As]
-1.7 -6.2 71 -10 -10 988.8 982.6
09 21.02 С 11-18
{18}
2000 м слабый ливневой снег 9/9 600 м
[Cb cap]
-2.0 -3.3 91 -11 -11 989.8 983.1 -1.5
12 21.02 СЗ 5
{18}
20 км {ливн. осадки, снег} 10/10 600 м
[Sc]
-1.6 -3.8 85 -8 -8 989.8 983.1
15 21.02 СЗ 12-15
{15}
20 км 10/10 600 м
[Sc]
-1.9 -4.1 85 -11 -11 988.0 981.8
18 21.02 СЗ 12-15
{15}
20 км 3/3 600 м
[Sc]
-1.7 -2.9 91 -11 -11 986.7 980.5
21 21.02 СЗ 15-17
{18}
50 км 6/1 600 м
[Sc Ci sp]
-1.6 -3.8 85 -12 -12 986.2 980.0 -2.3 0.0 42
00 22.02 СЗ 19-23
{23}
20 км позёмок {метель} 9/8 600 м
[Sc Ci sp]
-0.7 -3.3 83 -11 -11 985.2 979.0
03 22.02 СЗ 20-25
{25}
20 км сильный позёмок {метель} 9/4 600 м
[Sc Ci sp]
-1.8 -3.3 89 -13 -13 983.9 977.7
06 22.02 СЗ 23-27
{29}
20 км сильный позёмок {метель} 4/3 600 м
[Sc Ci sp]
-2.4 -4.0 89 -15 -15 983.1 976.9
09 22.02 СЗ 25-30
{30}
20 км сильный позёмок {метель} 3/3 600 м
[Sc]
-2.3 -3.9 89 -15 -15 984.6 978.4 -0.7
12 22.02 СЗ 16-20
{30}
20 км позёмок {метель} 8/8 600 м
[Sc]
-2.0 -4.4 84 -12 -12 989.2 983.0
15 22.02 СЗ 22-26
{26}
20 км сильный позёмок {метель} 6/6 600 м
[Sc]
-2.3 -3.0 95 -14 -14 989.6 983.4
18 22.02 СЗ 20-23
{28}
20 км сильный позёмок {метель} 8/8 600 м
[Sc]
-2.5 -3.4 94 -14 -14 991.4 985.2
21 22.02 СЗ 22-26
{28}
20 км сильный позёмок {метель} 3/3 600 м
[Sc]
-2.6 -3.7 92 -15 -15 992.0 985.8 -2.7 38
00 23.02 СЗ 20-25
{28}
20 км позёмок {метель} 9/9 600 м
[Sc]
-2.2 -6.4 73 -13 -13 993.8 987.6 -2.8
03 23.02 СЗ 21-25
{27}
2000 м слабый ливневой снег {метель} 9/9 600 м
[Cb cap]
-3.2 -4.5 91 -15 -15 995.5 989.1
06 23.02 СЗ 21-25
{27}
20 км {ливн. осадки, метель} 9/3 600 м
[Sc Cc]
-3.0 -6.7 76 -15 -15 996.7 990.3
09 23.02 СЗ 17-21
{25}
20 км 9/9 600 м
[Sc]
-3.5 -7.8 72 -15 -15 1000.0 993.6 -2.2 0.0
12 23.02 З 15-18
{21}
20 км 10/3 600 м
[Sc Ci sp]
-3.7 -8.9 67 -14 -14 1001.5 995.1
15 23.02 З 13-16
{19}
20 км 3/3 600 м
[Sc]
-4.4 -9.4 68 -15 -15 1002.0 995.6
18 23.02 З 11-13
{16}
20 км 9/9 600 м
[Sc]
-4.0 -10.2 62 -13 -13 1001.3 994.9
21 23.02 СЗ 4
{13}
50 км 8/3 600 м
[Sc Ac trans Ci sp]
-5.2 -11.3 62 -11 -11 999.9 993.5 -5.3 37
00 24.02 С 5 50 км 8/1 600 м
[Sc Ci fib]
-5.7 -10.2 71 -13 -11 996.7 990.3 -5.8

 

Местоположение метеостанции Мыс Лопатка (Камчатский край, Россия): широта 50.87 долгота 156.60 высота над уровнем моря 50 м.

В архиве по умолчанию представлена погода на Мысе Лопатка за последнюю неделю. Архивные данные за месяц целиком и за предыдущие месяцы, начиная с января 2011 года, Вы можете получить, выбрав интересующий диапазон дат из раскрывающегося списка и нажав кнопку "Ввод!".

Внимание! Время в таблицах - всемирное. Для получения местного времени необходимо прибавить поправку, которая на Мысе Лопатка равна 12 ч.

Смотрите также архив погоды в соседних городах и на ближайших метеорологических станциях:

Погода в Северо-Курильске (Сахалинская область, Россия) (41 км)
Погода в Озерной (Камчатский край, Россия) (69 км)
Погода в Водопадной (Камчатский край, Россия) (144 км)
Погода в Большерецке (Камчатский край, Россия) (219 км)
Погода в Начиках (Камчатский край, Россия) (261 км)
Погода в Петропавловск-Камчатском (Камчатский край, Россия) (261 км)
Погода в Петропавловском Маяке (Камчатский край, Россия) (266 км)
Погода в Сосновке (Камчатский край, Россия) (272 км)
Погода в Петропавловск-Камч. 2 (Камчатский край, Россия) (278 км)
Погода в Пущино (Камчатский край, Россия) (380 км)

Пояснения к столбцам:

Ветер - указаны скорость ветра в м/с - средняя за 10 мин, порывы в срок и между сроками (в фигурных скобках) и направление, откуда дует ветер: С - северный, СВ - северо-восточный, В - восточный, ЮВ - юго-восточный, Ю - южный, ЮЗ - юго-западный, З - западный, СЗ - северо-западный.
Видимость - горизонтальная дальность видимости в метрах или километрах. При видимости от 1 до 10 км при отсутствии осадков обычно наблюдается дымка, при ухудшении видимости до 1 км и менее - туман. В сухую погоду видимость может ухудшаться дымом, пылью или мглою.
Явления - указаны атмосферные явления, наблюдавшиеся в срок или в последний час перед сроком; фигурными скобками обозначены явления, наблюдавшиеся между сроками (за 1-3 часа до срока); квадратными скобками обозначены град или гололедные отложения с указанием их диаметра в мм.
Облачность - указаны через наклонную черту общая и нижняя облачность в баллах и высота нижней границы облаков в метрах; квадратными скобками обозначены формы облаков: Ci - перистые, Cs - перисто-слоистые, Cc - перисто-кучевые, Ac - высококучевые, As - высокослоистые, Sc - слоисто-кучевые, Ns - слоисто-дождевые, Cu - кучевые, Cb - кучево-дождевые. Подробнее классификацию облаков см. в Атласе облаков (PDF).
T - Температура воздуха - температура, измеренная на высоте 2 м над землей.
Td - Температура точки росы - температура, при понижении до которой содержащийся в воздухе водяной пар достигнет насыщения.
f - Относительная влажность воздуха - влажноcть воздуха, измеренная на высоте 2 м над землей.
Te - Эффективная температура - температура, которую ощущает одетый по сезону человек в тени. Характеристика душности погоды. При расчете учитывается влияние влажности воздуха и скорости ветра на теплоощущения человека.
Tes - Эффективная температура на солнце - температура, которую ощущает человек, с поправкой на солнечный нагрев. Характеристика знойности погоды. Зависит от высоты солнца над горизонтом, облачности и скорости ветра. Ночью, в пасмурную погоду, а также при ветре 12 м/с и более поправка равна нулю.
P - Атмосферное давление - приведенное к уровню моря атмосферное давление.
Po - Атмосферное давление - измеренное на уровне метеостанции атмосферное давление.
Tmin - Минимальная температура - минимум температуры воздуха на высоте 2 м над землей.
Tmax - Максимальная температура - максимум температуры воздуха на высоте 2 м над землей.
R - Количество осадков - Количество выпавших осадков, мм. При наведении курсора мыши на число - период времени, за который выпало указанное количество осадков.
S - Снежный покров - Высота снежного покрова, см. При наведении курсора мыши на число - состояние снежного покрова и степень покрытия местности в баллах.